Location: Boiro
(42.6475°N, 8.8834°W)
Time: 01:27:02
(UTC+01:00)

Explorer 7 - Pass Details

Date: 30 November 2021
Orbit: 483 x 674 km, 50.3° (Epoch: 23 January)

Event Time Altitude Azimuth Distance (km) Brightness Sun altitude
Rises 12:37:54 0° 298° (WNW) 2,631 9.9 24.7°
Reaches altitude 10° 12:40:19 10° 309° (NW) 1,717 9.0 24.8°
Maximum altitude 12:43:48 31° 13° (NNE) 882 7.6 25.0°
Drops below altitude 10° 12:47:11 10° 78° (ENE) 1,668 9.3 25.1°
Sets 12:49:30 0° 89° (E) 2,541 10.3 25.1°
